Location: Napier
(39.4830°S, 176.9170°E)
Time: 03:22:13
(UTC+12:00)

Cosmos 1821 Rocket - Pass Details

Date: 15 August 2020
Orbit: 946 x 1004 km, 82.9° (Epoch: 19 September)

Event Time Altitude Azimuth Distance (km) Brightness Sun altitude
Rises 18:31:21 0° 181° (S) 3,663 6.9 -11.5°
Reaches altitude 10° 18:34:02 10° 174° (S) 2,706 6.2 -12.1°
Maximum altitude 18:39:52 43° 103° (ESE) 1,322 4.3 -13.2°
Drops below altitude 10° 18:45:38 10° 32° (NNE) 2,670 6.0 -14.3°
Sets 18:48:14 0° 25° (NNE) 3,610 6.8 -14.8°
